Wind_Speed
23 22 21 20 18 17 15 14 13 12 11 11 11 11 10 10 10 11 11 11 11 11 12 12 12 13 13 14 14 13 13 13 12 11 10 9 8 7 7 7 7 7 7 7 6 6 6 6 7 8 8 9 10 10 11 12 13 13 14 14 15 15 16 16 16 16 17 17 17
25 23 22 21 19 18 16 15 14 13 13 12 12 12 11 11 10 11 11 12 12 12 13 13 14 14 14 14 14 14 13 13 12 11 10 9 8 7 7 7 6 6 6 6 6 6 6 6 6 7 8 9 9 10 11 12 12 13 14 14 15 15 16 16 16 17 17 18 18
26 25 23 22 21 19 18 16 15 14 14 13 13 13 12 12 11 11 12 12 13 14 14 14 15 15 15 15 15 15 14 13 12 11 10 9 8 7 7 7 6 6 6 6 6 6 6 6 6 7 7 8 9 10 10 11 12 13 13 14 15 15 16 16 17 17 18 18 19
27 26 25 23 22 20 18 16 15 15 14 14 14 14 13 13 12 12 12 13 14 15 15 15 15 16 17 16 16 15 14 13 11 10 9 8 8 7 7 7 6 6 6 6 6 6 6 6 6 7 7 8 9 9 10 11 12 12 13 14 15 15 16 17 17 17 18 18 19
27 26 25 23 21 19 18 16 16 15 15 15 15 15 15 14 14 13 13 14 15 15 15 16 16 17 18 17 16 15 14 12 11 10 9 8 7 7 7 7 7 7 7 6 7 7 7 7 7 7 8 8 9 9 10 11 11 12 13 14 15 16 16 17 17 18 18 19 19
28 27 25 23 22 20 19 17 17 16 16 16 16 16 16 16 15 14 14 14 15 15 16 16 17 18 18 18 16 15 13 12 11 10 9 8 7 7 7 7 7 7 7 7 8 8 8 9 9 9 9 9 10 10 10 11 11 12 13 14 15 16 17 17 18 18 19 19 19
28 27 25 24 22 21 19 18 18 17 17 17 17 17 17 16 15 14 14 14 15 16 16 17 18 18 18 17 16 15 13 12 11 10 9 8 8 8 8 8 8 8 8 8 8 9 9 10 10 10 10 11 11 11 11 12 12 12 13 13 14 15 16 17 18 18 19 19 19
28 27 26 24 23 21 20 19 19 19 19 19 19 18 18 16 15 14 14 15 16 17 17 17 18 18 18 17 16 15 14 13 12 11 10 9 8 8 8 8 8 8 8 8 9 9 10 11 11 11 12 12 12 12 12 12 12 13 13 14 14 15 16 17 18 18 19 19 20
29 28 27 25 23 22 21 20 20 20 20 20 19 19 18 16 15 15 16 16 17 17 17 17 18 18 18 17 16 15 14 13 12 11 10 9 8 8 8 8 8 8 8 9 9 10 10 11 11 12 12 12 13 13 13 13 13 13 14 14 14 15 15 16 17 18 18 19 19
30 29 28 26 24 23 22 21 21 21 21 20 20 19 18 17 16 16 17 17 17 18 17 17 18 18 18 17 16 15 14 13 12 10 9 8 8 8 8 8 8 8 8 9 9 10 10 11 12 12 12 13 13 13 13 13 13 14 14 14 14 15 15 15 16 17 18 18 19
31 30 28 27 25 23 22 22 22 22 22 21 21 20 19 18 18 17 18 18 18 18 18 17 18 18 18 17 16 15 14 12 11 10 9 8 8 8 8 8 8 8 9 9 9 10 10 11 12 12 12 12 13 13 13 13 14 14 14 14 14 15 15 15 16 16 17 18 18
32 30 29 27 25 24 24 23 23 23 23 23 22 22 21 19 19 19 19 19 19 18 17 17 18 18 17 17 16 15 13 12 10 9 8 8 8 9 8 9 9 9 9 10 10 11 11 12 12 13 13 13 13 13 13 13 14 14 14 14 14 15 15 15 15 16 16 17 18
32 31 29 28 26 25 25 24 25 24 24 24 23 23 22 21 20 20 20 20 18 18 17 17 17 17 17 16 15 14 13 11 10 9 9 9 9 9 9 9 9 9 10 10 11 12 12 13 13 13 13 13 13 13 14 14 14 14 15 15 15 15 15 16 16 16 16 16 17
33 32 30 29 27 26 26 26 26 26 25 25 25 24 23 22 22 21 21 19 18 17 17 17 17 17 16 15 15 14 12 11 10 9 9 9 9 9 10 10 10 10 11 12 12 13 14 14 14 14 14 14 14 14 15 15 15 15 15 16 16 16 16 17 17 17 17 16 17
34 33 31 30 28 28 27 27 27 27 26 26 25 25 24 23 22 22 21 19 18 17 17 17 17 16 15 15 14 13 12 11 10 9 9 10 10 10 10 10 10 11 12 13 14 14 15 15 15 15 15 16 16 16 16 16 16 16 17 17 17 18 18 18 19 18 18 17 17
35 34 33 31 30 29 28 28 28 27 27 26 26 25 24 24 23 22 20 19 18 17 17 17 16 15 15 14 13 13 12 11 10 10 10 10 11 11 11 11 11 12 13 14 15 16 16 16 16 17 17 17 17 17 17 17 17 18 18 18 18 19 19 20 20 20 19 18 17
36 35 34 33 31 30 30 29 28 28 27 27 26 25 24 23 23 21 20 19 18 17 16 16 15 15 14 14 13 13 12 11 11 11 11 11 12 12 12 12 12 13 14 15 16 17 17 17 18 18 18 18 19 19 18 18 18 19 19 19 20 20 20 21 21 21 21 19 18
37 36 35 34 33 32 31 30 29 28 28 27 26 25 24 23 22 21 20 19 17 16 15 15 14 14 14 14 13 13 12 12 11 11 12 12 12 13 13 13 13 14 15 16 17 18 18 19 19 19 20 20 20 20 20 20 19 19 20 20 21 21 22 22 22 23 22 21 19
38 38 37 36 35 34 32 31 30 29 28 27 26 26 24 23 22 21 19 18 17 15 14 14 14 14 14 14 13 13 13 12 12 12 12 13 13 14 13 13 14 15 16 17 18 19 19 20 20 20 21 21 21 21 21 21 21 20 20 21 21 22 23 23 24 24 23 22 20
39 39 38 37 36 35 33 32 31 29 28 28 27 26 25 23 22 20 19 18 16 15 14 14 14 14 14 14 14 14 13 13 13 13 13 14 14 14 14 14 15 16 17 18 19 20 20 21 21 22 22 22 23 23 23 22 22 21 21 22 22 23 24 24 25 25 25 23 21
40 40 39 38 37 36 34 33 31 30 29 28 27 26 25 23 22 20 19 17 16 15 14 14 14 14 14 14 14 14 13 13 13 14 14 15 15 15 14 15 16 17 18 19 20 21 21 22 22 23 23 24 24 24 24 24 23 23 22 22 23 24 25 25 26 27 27 25 22
42 41 40 39 38 37 35 33 32 31 30 29 28 27 25 24 22 20 18 17 16 15 15 14 14 14 14 14 14 14 14 14 14 14 15 15 15 15 15 15 16 18 19 20 21 22 23 23 23 24 24 25 25 25 25 25 24 24 23 23 24 25 26 27 28 29 28 26 24
42 42 41 40 39 38 36 34 33 32 31 30 28 27 25 24 22 20 19 18 17 16 15 15 14 14 14 14 14 14 14 15 15 15 15 15 15 15 15 16 17 19 20 21 22 23 24 24 24 25 25 26 26 26 26 26 25 24 24 24 24 25 26 28 29 30 29 28 25
43 43 42 41 40 38 36 35 34 32 31 30 29 27 25 24 22 20 19 18 17 16 15 15 14 14 14 14 14 15 15 15 15 15 15 15 15 15 15 17 18 20 21 22 23 24 25 25 25 26 26 26 27 27 27 26 26 25 25 25 25 26 27 28 30 31 30 29 26
45 44 43 42 41 39 37 36 34 33 31 30 28 27 25 23 22 20 19 18 17 16 16 15 15 14 14 15 15 15 15 15 15 15 15 15 15 15 16 18 19 21 22 23 24 25 25 25 26 26 27 27 27 27 27 27 27 26 26 26 26 27 28 29 30 31 31 30 27
46 45 44 43 41 40 38 37 35 33 31 29 28 26 25 23 22 20 19 18 17 16 16 15 15 15 15 15 16 16 15 15 15 15 15 15 15 16 17 18 20 21 22 23 23 24 25 25 25 26 27 27 28 28 28 28 27 27 27 27 27 28 29 30 31 32 32 30 28
47 46 45 44 42 40 39 36 34 32 30 28 27 26 25 23 22 20 19 18 17 16 16 16 16 16 16 16 16 16 16 15 15 15 15 15 15 16 17 19 20 21 21 22 23 23 23 24 24 25 26 27 27 28 28 28 28 28 28 28 28 29 30 31 32 33 32 31 29
48 47 46 45 43 41 38 36 33 31 29 28 27 26 24 23 22 21 19 18 17 17 17 17 17 17 17 17 16 16 16 16 15 15 15 15 16 16 18 19 20 21 21 22 22 23 23 23 23 23 24 25 26 27 27 28 28 28 28 28 29 30 31 32 33 34 34 33 30
49 48 47 46 44 41 38 35 33 31 29 28 26 25 24 23 22 21 20 19 18 18 18 18 17 17 17 17 16 16 16 15 14 14 14 15 16 17 18 19 20 21 21 22 22 23 22 22 22 22 23 24 25 25 26 27 27 28 28 28 29 30 31 33 34 35 36 35 31
49 49 48 46 43 40 37 35 32 30 28 27 26 26 25 24 22 21 20 20 19 19 18 18 18 17 17 17 17 16 16 14 13 13 14 16 17 18 19 20 20 20 21 22 22 23 23 22 22 22 22 23 23 24 25 26 26 27 28 28 29 30 32 33 35 37 37 35 31
49 48 47 45 42 38 36 33 31 29 28 27 27 26 25 24 23 22 21 20 19 18 18 18 18 17 17 17 17 16 15 14 13 14 15 17 19 20 20 20 20 20 21 22 23 23 23 23 22 22 22 22 23 24 24 25 26 26 27 28 29 30 31 33 35 37 37 35 31
47 47 45 42 39 36 34 32 31 29 29 28 27 27 25 24 23 21 20 19 19 18 18 18 18 18 18 17 16 14 13 14 14 16 18 20 21 21 21 20 20 20 21 22 23 24 24 24 23 23 22 23 23 23 24 24 25 26 26 27 28 29 31 33 35 36 35 33 30
45 44 42 39 37 35 34 32 31 30 29 28 27 26 25 24 22 21 20 19 19 19 19 19 19 19 18 16 14 13 14 15 16 18 20 22 22 21 21 20 20 21 22 23 24 25 25 25 24 24 23 23 23 23 24 24 25 25 26 26 27 28 29 31 32 33 32 30 28
43 42 41 39 37 35 34 33 31 30 29 28 27 26 24 23 21 20 20 19 19 19 19 20 20 18 17 14 13 14 16 17 19 21 22 23 22 21 20 21 21 21 22 23 25 26 26 26 25 24 24 24 24 24 24 25 25 25 26 26 26 27 28 30 30 30 29 28 27
41 41 40 39 38 36 34 33 31 30 29 28 27 25 24 22 21 20 20 20 20 21 20 20 18 17 15 15 16 17 18 18 20 21 23 24 22 21 20 21 21 21 22 24 25 26 26 26 25 25 25 25 25 25 25 25 25 25 25 25 26 27 28 29 29 29 28 27 26
41 40 40 39 37 36 34 32 31 29 28 27 26 24 23 22 21 21 21 21 22 22 21 19 17 16 16 17 18 18 19 19 21 23 24 24 22 20 20 21 21 22 23 24 25 26 26 26 26 26 26 26 26 26 26 26 26 25 25 25 25 26 28 29 29 28 27 26 27
40 39 38 37 36 34 33 31 30 29 28 27 25 23 23 22 22 23 23 23 22 22 20 18 18 18 18 18 18 19 19 20 22 24 25 24 21 20 20 21 22 23 23 25 26 27 27 28 27 27 27 27 27 27 27 26 26 25 24 24 25 26 28 28 28 26 24 24 26
38 37 35 34 33 33 32 31 29 28 27 26 24 23 23 24 24 24 24 24 22 21 20 20 20 19 19 19 19 20 20 22 24 25 25 22 19 19 20 22 23 24 24 26 27 28 29 29 29 29 28 28 28 27 27 26 25 25 24 24 24 26 27 27 25 23 21 22 25
36 34 32 31 31 31 31 30 28 27 26 25 25 25 25 25 26 26 25 24 22 22 22 21 20 19 19 19 20 20 21 23 25 25 23 20 19 19 21 22 24 25 25 27 29 30 31 31 30 29 28 27 27 27 26 26 25 24 24 23 24 25 26 25 23 21 20 21 23
33 31 29 29 29 29 29 28 27 26 26 26 26 26 27 27 27 27 25 24 23 23 23 22 20 19 19 19 20 21 23 25 26 24 21 19 18 19 21 23 24 26 27 28 30 31 31 30 29 28 27 26 25 25 25 25 25 24 23 23 23 24 24 23 22 20 20 21 22
29 28 27 27 27 27 27 26 26 26 26 26 27 28 29 28 28 27 26 25 25 24 23 21 20 19 19 19 20 22 25 27 26 23 20 18 18 19 21 23 25 27 28 30 31 31 30 28 27 26 25 24 24 24 24 24 24 24 23 23 23 23 23 23 22 22 23 24 24
Wind_Direction
217 219 220 221 222 224 226 228 230 234 238 241 245 246 249 253 258 262 265 267 268 270 274 278 283 287 292 296 299 303 306 310 313 316 320 323 327 330 334 338 342 344 344 342 339 336 335 335 339 344 349 354 359 2 5 7 9 9 9 10 10 10 9 9 8 7 6 5 3
218 219 221 222 224 226 228 230 232 235 239 242 245 247 250 252 256 260 262 263 265 268 271 276 281 285 289 291 294 297 300 303 307 312 317 322 326 330 334 337 340 342 343 342 340 337 335 336 339 343 348 353 357 0 3 5 5 6 6 7 8 8 7 7 7 7 7 6 5
219 219 221 222 224 226 228 231 234 237 240 242 245 247 249 251 253 256 258 261 263 266 269 275 281 284 285 286 287 289 292 296 301 307 313 319 326 331 335 337 339 341 342 343 343 342 341 340 341 343 346 349 353 356 359 360 1 1 1 2 2 3 3 3 4 4 4 4 4
220 220 221 222 224 226 230 234 237 240 242 244 245 246 246 246 248 251 254 258 261 264 268 275 280 282 282 280 280 282 286 290 295 301 308 316 324 330 335 336 338 340 342 345 348 349 349 348 346 344 344 345 348 350 352 354 354 355 355 356 356 357 357 357 358 358 359 360 1
220 221 222 223 225 228 231 235 238 241 242 244 244 244 242 241 242 246 252 257 259 263 268 275 278 279 277 274 274 276 280 284 289 296 303 311 319 326 331 334 336 338 341 346 352 355 357 356 353 350 347 345 344 343 345 347 348 349 349 351 352 352 352 352 352 353 353 354 355
221 222 222 224 226 229 232 235 238 240 242 242 242 241 239 238 240 245 251 256 259 263 268 273 275 274 271 268 268 270 274 279 284 290 297 304 313 319 324 327 329 332 338 344 351 355 358 358 357 355 352 348 344 342 341 341 342 343 344 345 347 348 348 348 348 348 349 350 350
223 223 223 224 226 228 231 233 235 237 239 239 240 239 238 237 240 246 253 257 258 260 263 267 269 267 265 263 263 266 269 274 279 284 290 297 305 312 317 319 322 326 332 339 345 350 353 354 354 354 353 351 346 343 341 340 339 339 339 339 342 343 344 344 345 345 346 346 346
224 224 224 225 227 228 230 232 233 234 236 236 237 237 237 237 241 247 253 255 255 256 258 261 262 261 260 259 260 262 265 270 275 280 285 292 300 307 311 313 316 320 326 333 338 342 344 346 348 349 349 349 346 344 342 340 338 337 336 336 337 338 340 340 341 342 342 342 342
224 224 225 226 227 229 231 232 233 234 235 235 235 235 235 236 240 246 250 252 253 255 256 258 257 256 255 256 257 260 264 268 272 276 281 289 296 302 305 308 312 316 322 327 332 334 336 338 340 342 343 344 343 342 342 341 338 336 335 334 334 334 336 337 337 338 338 338 338
224 224 224 225 227 228 230 231 232 233 234 235 235 234 234 236 240 244 248 250 253 254 255 255 253 251 251 252 255 259 263 267 271 275 281 287 293 297 300 303 307 311 315 320 323 326 328 330 331 332 335 338 338 339 340 340 338 336 334 333 332 331 332 333 333 334 334 334 334
224 225 225 226 227 228 228 229 230 231 232 233 233 233 233 234 238 242 245 247 250 253 254 253 250 249 249 251 254 259 263 267 271 275 279 285 289 293 296 298 301 305 308 311 314 317 319 322 322 323 325 329 332 334 336 337 336 335 333 332 331 329 328 328 329 329 329 329 330
226 226 226 227 227 228 228 228 228 229 230 231 231 231 231 232 235 238 240 243 247 252 253 251 248 247 248 251 254 258 262 266 269 273 277 281 285 288 291 293 295 298 300 302 304 307 310 312 313 314 316 319 323 326 329 331 332 332 330 329 328 326 325 323 323 323 323 324 326
226 226 226 227 227 227 228 228 228 228 229 229 229 229 229 230 232 234 237 241 246 249 249 247 246 246 247 250 254 258 261 264 267 270 274 278 281 283 285 287 290 293 294 295 297 299 302 304 305 306 308 310 313 317 321 324 325 326 326 325 324 322 320 317 316 316 317 319 321
227 226 226 227 227 227 227 227 227 228 228 228 228 228 228 229 230 232 235 240 244 245 244 243 243 244 247 250 254 258 260 263 265 268 271 275 278 280 281 284 287 288 290 290 292 293 296 297 299 300 301 303 306 309 313 316 319 320 321 321 320 318 315 311 309 309 310 312 316
227 226 226 227 227 227 226 226 227 227 228 228 228 228 228 229 229 231 234 238 240 241 240 240 241 243 246 250 253 256 259 262 263 266 269 273 275 278 280 282 285 287 287 288 289 290 292 293 294 295 296 297 299 302 305 309 312 315 316 316 316 314 311 307 304 303 303 305 310
227 227 226 227 227 227 227 226 226 227 227 228 228 228 228 229 230 231 234 236 237 237 237 239 241 243 246 249 252 255 258 260 262 265 268 272 274 277 280 282 284 286 287 287 287 288 289 290 290 291 291 293 294 296 300 303 307 310 312 313 312 310 307 304 301 298 297 298 303
228 227 227 227 228 228 229 228 227 226 226 227 228 228 229 229 230 232 234 235 236 236 237 239 242 245 247 249 251 254 256 259 261 265 269 272 275 277 279 282 285 288 288 288 287 287 287 288 288 288 288 289 290 292 295 299 302 306 308 309 309 307 304 300 298 295 292 292 296
229 228 228 229 230 230 231 231 229 227 226 226 227 228 229 230 231 232 233 235 235 237 239 241 244 247 249 251 253 255 257 259 262 266 271 274 276 277 279 283 287 289 289 288 287 286 286 286 285 285 285 286 287 289 292 295 298 302 305 306 306 304 300 298 295 292 288 286 289
230 230 230 231 231 232 233 233 232 229 227 227 227 228 229 230 231 232 233 234 236 238 241 243 245 248 251 253 255 257 259 261 264 268 272 275 276 277 279 283 287 288 288 287 287 286 285 285 284 284 284 284 285 286 289 292 295 299 302 303 303 300 297 295 293 289 285 282 284
232 232 232 233 233 234 234 235 234 232 229 228 228 229 230 231 232 232 233 235 237 239 241 243 246 249 252 254 256 258 260 263 267 270 273 274 274 275 277 282 285 287 288 287 286 286 285 284 284 284 283 283 284 285 287 289 292 296 299 300 299 297 295 292 290 286 282 278 280
234 234 235 235 235 235 236 236 235 233 231 230 230 230 231 232 232 233 235 237 239 240 241 243 247 250 253 255 257 260 262 265 268 270 272 272 272 273 276 281 285 287 287 287 286 286 285 284 284 284 283 283 283 284 285 287 290 293 296 297 296 295 292 290 287 284 280 277 277
235 236 236 236 236 236 236 236 235 234 233 232 232 232 232 232 233 235 238 239 239 240 241 244 248 252 255 257 259 262 264 266 267 269 270 270 270 272 275 280 284 286 286 287 287 287 286 285 284 284 283 283 283 283 285 286 289 291 293 295 294 292 290 288 286 283 279 276 275
236 236 236 236 236 236 236 236 235 234 233 233 233 232 232 233 234 236 237 238 239 240 243 246 250 253 256 258 260 262 263 264 265 267 268 269 269 271 275 279 283 285 287 287 288 288 287 285 285 284 284 283 283 284 284 286 287 289 291 292 292 290 288 287 286 284 280 276 274
236 236 236 236 236 235 235 235 234 234 234 234 233 233 232 233 233 234 234 236 238 241 244 247 250 253 255 257 258 258 259 260 262 265 266 266 268 271 275 279 283 286 288 289 289 289 287 286 285 285 285 284 284 284 284 285 286 288 289 290 290 288 287 286 287 285 282 276 273
236 236 236 236 235 235 234 234 234 234 234 234 233 233 233 233 232 232 233 236 239 242 245 247 250 252 253 254 254 254 254 256 259 262 263 264 265 268 273 278 283 287 289 291 290 289 288 287 286 286 286 285 285 285 284 284 285 286 288 289 288 287 286 286 287 286 282 276 273
236 237 236 236 236 235 234 234 234 234 234 234 233 233 233 232 232 232 234 237 240 243 246 248 249 250 251 251 251 250 250 252 255 258 259 259 261 266 272 278 283 287 290 291 291 289 288 287 286 286 286 286 285 284 284 284 284 285 287 287 287 286 285 286 288 286 281 274 271
236 237 237 236 235 234 234 234 234 233 233 233 233 233 233 232 232 233 234 238 241 243 245 246 247 248 249 249 247 246 245 247 251 254 255 256 260 266 273 279 284 287 290 291 291 289 288 287 286 286 285 285 284 284 283 283 284 284 285 286 285 285 285 286 288 285 279 271 269
236 236 237 236 235 234 233 233 232 232 233 233 234 234 234 232 232 233 235 238 240 242 243 244 245 245 245 244 242 240 241 244 247 250 252 255 260 267 274 281 285 288 290 292 291 290 289 288 287 286 284 283 283 282 282 282 283 283 284 285 285 285 285 286 287 282 275 268 268
235 236 236 235 234 233 232 231 231 232 233 234 235 234 233 232 232 233 235 237 239 241 241 242 243 242 241 238 236 235 236 240 243 246 250 255 261 269 277 283 287 290 291 292 292 292 291 290 288 286 284 282 281 281 280 281 281 282 284 285 285 285 286 287 285 280 273 268 269
234 235 235 234 233 232 231 231 231 232 233 234 234 233 232 231 232 234 235 237 239 240 241 241 240 238 236 232 230 230 233 236 239 243 250 257 264 274 282 287 289 290 291 292 292 292 292 291 289 287 285 283 282 281 281 281 282 283 284 285 286 287 288 287 284 279 273 271 273
233 234 234 234 233 232 232 232 233 233 233 233 233 232 232 232 234 235 236 237 239 240 239 238 236 233 228 225 225 227 231 234 237 242 249 258 269 279 286 289 289 289 289 290 291 292 292 291 290 289 287 286 284 284 284 284 285 285 286 287 288 289 289 288 284 280 277 276 278
233 234 234 234 233 233 233 233 234 233 233 233 232 232 232 233 234 235 235 237 237 237 235 233 229 224 220 219 222 226 230 233 238 244 251 261 274 284 289 289 287 286 287 288 290 291 291 291 290 289 288 287 286 286 287 287 287 288 288 289 290 290 289 288 286 284 283 283 284
235 235 236 235 235 234 235 235 234 234 233 232 232 232 232 233 233 233 234 234 234 232 230 226 221 218 217 219 223 227 231 235 240 247 256 268 280 287 289 286 284 284 286 288 290 291 292 291 290 289 288 288 288 288 289 289 289 290 290 290 291 291 290 289 289 288 287 286 287
238 238 238 237 236 236 236 236 235 234 233 232 231 231 231 231 231 231 231 231 229 226 222 219 217 216 218 221 224 228 233 239 245 253 264 276 285 288 287 284 284 285 288 290 292 293 293 292 292 291 291 290 290 290 290 290 291 291 291 292 292 292 292 291 290 288 285 284 285
241 241 240 238 237 236 236 236 235 233 232 230 229 229 229 229 229 230 229 227 223 219 216 214 214 216 219 223 226 230 236 244 252 262 273 283 288 288 285 284 285 287 290 292 293 294 294 294 294 294 293 292 291 291 291 291 291 291 291 292 292 293 292 290 287 284 280 279 281
243 242 241 239 237 237 236 236 234 232 230 229 228 228 227 227 227 227 225 221 217 213 211 211 212 217 222 226 230 236 243 251 260 271 281 288 289 287 285 285 287 289 290 292 293 294 295 295 295 295 295 293 292 291 291 291 291 290 290 290 292 292 291 289 284 279 277 279 284
244 243 241 240 238 237 237 236 233 231 229 228 227 226 225 225 224 222 220 216 212 209 208 210 214 221 227 231 236 243 251 259 269 279 287 290 289 286 286 287 288 289 291 292 294 295 296 296 296 295 294 293 292 291 291 290 289 288 288 289 291 292 292 289 283 279 280 285 289
244 243 242 240 239 238 237 235 232 229 227 226 224 223 223 222 221 219 215 211 208 207 210 215 221 227 232 237 244 251 260 268 278 286 290 290 286 285 285 287 288 290 291 293 295 296 297 297 296 295 294 292 291 290 289 288 287 286 286 287 291 293 293 290 285 282 285 291 293
244 243 242 240 238 237 236 233 230 227 224 222 221 220 221 221 218 215 210 207 206 209 216 222 228 233 239 246 253 261 269 278 285 289 290 287 283 283 284 286 289 290 292 294 296 296 297 297 297 296 294 292 290 288 287 286 284 283 284 286 291 294 294 290 286 284 287 292 294
243 243 241 238 236 235 233 230 226 223 221 220 219 219 219 218 215 211 207 206 209 216 223 229 235 241 248 256 263 271 279 286 290 290 287 283 280 281 284 287 290 292 294 295 296 297 298 298 297 296 294 292 290 288 286 284 282 282 282 285 289 293 293 290 286 285 287 291 291
241 239 238 236 234 232 229 225 221 219 219 219 219 219 218 216 212 209 208 211 216 223 230 236 242 249 257 265 273 281 287 291 291 289 284 279 279 281 285 289 291 293 294 296 297 298 298 298 297 296 294 292 290 287 285 283 281 280 281 284 287 290 290 288 286 286 288 288 285
Height
1544 1545 1545 1546 1546 1547 1548 1548 1549 1549 1550 1550 1550 1551 1551 1552 1552 1553 1554 1554 1555 1555 1555 1555 1555 1555 1555 1555 1555 1555 1556 1556 1556 1556 1556 1555 1555 1555 1554 1553 1553 1552 1552 1551 1551 1551 1551 1550 1550 1550 1550 1550 1549 1549 1549 1549 1548 1548 1548 1547 1547 1547 1547 1547 1546 1546 1546 1545 1545
1543 1544 1545 1545 1546 1547 1547 1548 1549 1549 1549 1550 1550 1550 1550 1551 1551 1552 1553 1553 1554 1554 1554 1554 1555 1555 1555 1555 1555 1555 1555 1555 1555 1555 1555 1555 1555 1555 1554 1553 1553 1552 1552 1551 1551 1551 1550 1550 1550 1550 1549 1549 1549 1549 1548 1548 1548 1548 1547 1547 1547 1547 1546 1546 1546 1546 1545 1545 1544
1542 1543 1544 1544 1545 1545 1546 1547 1548 1548 1549 1549 1550 1550 1550 1550 1551 1551 1552 1553 1553 1553 1554 1554 1554 1554 1554 1554 1554 1554 1554 1554 1554 1555 1555 1555 1555 1554 1554 1554 1553 1552 1552 1551 1551 1550 1550 1550 1550 1549 1549 1549 1549 1548 1548 1548 1547 1547 1547 1547 1546 1546 1546 1546 1545 1545 1545 1545 1544
1541 1542 1542 1543 1544 1545 1545 1546 1547 1547 1548 1549 1549 1550 1550 1550 1550 1550 1551 1552 1552 1552 1553 1553 1553 1553 1553 1553 1553 1553 1553 1553 1553 1554 1554 1554 1554 1554 1554 1553 1553 1552 1552 1551 1551 1550 1550 1550 1549 1549 1549 1549 1548 1548 1548 1547 1547 1547 1546 1546 1546 1545 1545 1545 1545 1545 1544 1544 1544
1540 1541 1542 1542 1543 1544 1545 1545 1546 1546 1547 1548 1548 1549 1549 1549 1549 1550 1550 1550 1551 1551 1552 1552 1552 1552 1551 1551 1551 1552 1552 1552 1552 1552 1553 1553 1553 1553 1553 1553 1553 1552 1551 1551 1550 1550 1550 1549 1549 1548 1548 1548 1548 1548 1547 1547 1547 1546 1546 1545 1545 1545 1545 1545 1544 1544 1544 1543 1543
1540 1540 1541 1542 1542 1543 1544 1544 1545 1545 1546 1547 1547 1547 1548 1548 1548 1549 1549 1550 1550 1550 1551 1551 1550 1550 1550 1550 1550 1550 1550 1550 1551 1551 1551 1551 1552 1552 1552 1552 1552 1551 1551 1550 1550 1549 1549 1549 1548 1548 1548 1547 1547 1547 1547 1546 1546 1546 1545 1545 1545 1544 1544 1544 1544 1543 1543 1543 1542
1539 1540 1540 1541 1541 1542 1542 1543 1544 1545 1545 1545 1546 1546 1546 1547 1547 1548 1548 1549 1549 1549 1550 1549 1549 1549 1549 1549 1549 1549 1549 1549 1549 1549 1549 1550 1550 1550 1550 1551 1550 1550 1550 1550 1549 1549 1548 1548 1547 1547 1547 1547 1547 1546 1546 1546 1546 1545 1545 1545 1544 1544 1543 1543 1543 1543 1542 1542 1542
1538 1539 1539 1540 1540 1541 1541 1542 1543 1543 1544 1544 1545 1545 1545 1546 1546 1547 1547 1548 1548 1548 1548 1548 1548 1547 1547 1547 1547 1547 1547 1547 1547 1547 1547 1547 1547 1548 1548 1548 1549 1549 1549 1548 1548 1547 1547 1547 1546 1546 1546 1546 1546 1546 1546 1545 1545 1545 1544 1544 1543 1543 1543 1542 1542 1542 1542 1541 1541
1537 1538 1538 1539 1539 1540 1540 1541 1541 1542 1542 1543 1543 1544 1545 1545 1545 1546 1546 1546 1546 1546 1546 1546 1546 1546 1546 1546 1546 1546 1545 1545 1545 1545 1545 1545 1545 1545 1545 1546 1546 1546 1547 1546 1546 1546 1546 1546 1545 1545 1545 1545 1545 1545 1545 1545 1544 1544 1543 1543 1543 1542 1542 1542 1541 1541 1541 1540 1540
1535 1536 1537 1537 1538 1538 1539 1540 1540 1540 1541 1542 1542 1543 1543 1544 1544 1544 1544 1545 1545 1545 1545 1544 1544 1544 1544 1545 1545 1544 1544 1544 1544 1544 1543 1543 1543 1543 1544 1544 1544 1545 1545 1545 1545 1545 1545 1545 1545 1544 1544 1544 1544 1544 1544 1544 1544 1543 1542 1542 1542 1541 1541 1541 1540 1540 1540 1540 1539
1534 1534 1535 1536 1536 1537 1538 1538 1539 1539 1540 1540 1541 1541 1542 1542 1542 1542 1543 1543 1543 1543 1543 1543 1543 1543 1543 1543 1543 1543 1543 1543 1543 1542 1542 1542 1542 1542 1542 1542 1543 1543 1543 1543 1543 1543 1543 1543 1543 1543 1543 1543 1543 1543 1543 1543 1543 1542 1542 1541 1541 1540 1540 1540 1540 1539 1539 1539 1538
1532 1533 1534 1534 1535 1535 1536 1536 1537 1537 1538 1538 1539 1539 1540 1540 1540 1540 1540 1540 1540 1541 1541 1541 1541 1541 1541 1541 1541 1541 1541 1541 1541 1541 1541 1541 1541 1541 1541 1541 1542 1542 1542 1542 1542 1542 1542 1542 1542 1542 1542 1542 1542 1542 1542 1542 1542 1541 1541 1540 1540 1540 1539 1539 1539 1538 1538 1538 1537
1530 1531 1532 1533 1533 1534 1534 1535 1535 1535 1536 1536 1537 1537 1537 1538 1538 1538 1538 1539 1539 1539 1539 1539 1539 1540 1540 1540 1540 1540 1540 1540 1540 1540 1540 1540 1540 1540 1540 1540 1540 1541 1541 1541 1541 1541 1541 1541 1541 1541 1541 1541 1541 1541 1541 1541 1540 1540 1540 1539 1539 1538 1538 1538 1537 1537 1537 1536 1536
1528 1529 1530 1530 1531 1532 1532 1533 1533 1533 1534 1534 1535 1535 1536 1536 1536 1536 1537 1537 1537 1537 1537 1537 1537 1538 1538 1538 1538 1538 1538 1538 1538 1538 1539 1539 1539 1539 1539 1539 1540 1540 1540 1540 1540 1540 1540 1540 1540 1540 1540 1540 1540 1540 1540 1540 1539 1539 1539 1538 1538 1537 1537 1536 1536 1536 1535 1535 1535
1526 1527 1528 1529 1529 1530 1530 1530 1531 1531 1532 1533 1533 1534 1534 1535 1535 1535 1535 1535 1535 1535 1535 1535 1535 1536 1536 1537 1537 1537 1537 1537 1537 1537 1537 1538 1538 1538 1538 1539 1539 1539 1539 1539 1539 1539 1539 1539 1539 1539 1539 1538 1538 1538 1538 1538 1538 1538 1537 1537 1536 1536 1535 1535 1535 1535 1534 1534 1534
1524 1525 1526 1526 1527 1528 1528 1529 1529 1530 1530 1531 1532 1532 1533 1533 1534 1534 1534 1534 1534 1534 1534 1534 1534 1535 1535 1535 1535 1535 1536 1536 1536 1536 1536 1537 1537 1537 1537 1538 1538 1538 1538 1538 1538 1537 1537 1537 1537 1537 1537 1537 1537 1537 1536 1536 1536 1536 1535 1535 1535 1535 1534 1534 1533 1533 1533 1532 1532
1522 1523 1524 1524 1525 1525 1526 1526 1527 1528 1529 1530 1530 1531 1531 1532 1532 1533 1533 1533 1533 1533 1533 1533 1533 1534 1534 1534 1534 1534 1535 1535 1535 1535 1535 1536 1536 1536 1537 1537 1537 1537 1537 1537 1537 1536 1536 1536 1536 1536 1536 1536 1535 1535 1535 1535 1535 1534 1534 1534 1533 1533 1533 1532 1532 1531 1531 1531 1531
1520 1520 1521 1522 1523 1523 1524 1525 1525 1526 1527 1528 1529 1529 1530 1530 1531 1531 1531 1532 1532 1532 1532 1532 1532 1533 1533 1533 1533 1533 1533 1534 1534 1534 1535 1535 1535 1535 1536 1536 1536 1536 1536 1536 1535 1535 1535 1535 1535 1535 1535 1534 1534 1534 1533 1533 1533 1532 1532 1532 1532 1531 1531 1531 1530 1530 1530 1529 1529
1517 1518 1519 1520 1520 1521 1522 1522 1523 1525 1525 1526 1527 1527 1528 1529 1529 1530 1530 1530 1530 1531 1531 1531 1531 1532 1532 1532 1532 1532 1532 1533 1533 1533 1534 1534 1535 1535 1535 1535 1535 1535 1535 1535 1535 1534 1534 1534 1534 1533 1533 1533 1532 1532 1532 1531 1531 1531 1530 1530 1530 1530 1530 1529 1529 1528 1528 1528 1528
1515 1516 1516 1517 1518 1519 1520 1520 1522 1523 1524 1525 1525 1526 1526 1527 1527 1528 1528 1528 1529 1529 1530 1530 1530 1530 1531 1531 1531 1531 1531 1532 1532 1533 1533 1533 1534 1534 1534 1534 1534 1534 1534 1534 1533 1533 1533 1532 1532 1532 1531 1531 1531 1530 1530 1530 1530 1529 1529 1529 1528 1528 1528 1527 1527 1526 1526 1526 1526
1512 1513 1514 1515 1516 1517 1518 1519 1520 1521 1522 1523 1523 1524 1525 1525 1525 1526 1526 1527 1527 1528 1528 1528 1529 1529 1530 1530 1530 1530 1530 1531 1531 1532 1532 1532 1533 1533 1533 1533 1533 1533 1533 1532 1532 1532 1531 1531 1531 1530 1530 1530 1530 1529 1529 1528 1528 1528 1527 1527 1527 1526 1526 1525 1525 1525 1524 1524 1524
1510 1511 1512 1513 1514 1515 1516 1517 1518 1519 1520 1521 1521 1522 1523 1523 1524 1524 1525 1525 1526 1526 1526 1527 1527 1528 1528 1529 1529 1529 1530 1530 1530 1531 1531 1532 1532 1532 1532 1532 1532 1532 1532 1531 1531 1530 1530 1530 1529 1529 1529 1528 1528 1528 1527 1527 1527 1526 1526 1525 1525 1525 1524 1524 1523 1522 1522 1522 1522
1507 1509 1510 1511 1512 1513 1514 1515 1516 1517 1518 1519 1520 1520 1521 1521 1522 1523 1523 1524 1524 1525 1525 1525 1526 1526 1527 1527 1528 1528 1529 1529 1530 1530 1530 1530 1531 1531 1531 1531 1531 1531 1530 1530 1530 1529 1529 1528 1528 1528 1527 1527 1526 1526 1526 1525 1525 1525 1524 1524 1523 1523 1522 1522 1521 1520 1520 1520 1521
1505 1506 1508 1509 1510 1511 1512 1514 1515 1515 1516 1517 1518 1519 1519 1520 1521 1521 1522 1522 1522 1523 1524 1524 1525 1525 1525 1526 1526 1527 1527 1528 1528 1529 1529 1529 1530 1530 1530 1530 1530 1529 1529 1529 1528 1528 1527 1527 1527 1526 1526 1525 1525 1525 1524 1524 1524 1523 1523 1522 1522 1521 1520 1520 1519 1519 1519 1519 1519
1503 1504 1505 1506 1508 1509 1510 1511 1512 1513 1514 1515 1516 1517 1518 1519 1520 1520 1520 1520 1521 1522 1522 1523 1523 1524 1524 1525 1525 1525 1526 1527 1527 1527 1527 1528 1528 1529 1529 1529 1528 1528 1528 1527 1527 1526 1526 1525 1525 1525 1525 1524 1524 1523 1523 1522 1522 1521 1521 1520 1520 1519 1519 1518 1517 1517 1517 1517 1517
1501 1502 1503 1504 1505 1507 1508 1509 1510 1511 1513 1514 1515 1516 1517 1518 1518 1519 1519 1520 1520 1520 1521 1522 1522 1522 1523 1523 1524 1524 1525 1525 1525 1525 1525 1526 1527 1527 1527 1527 1527 1526 1526 1526 1525 1525 1525 1524 1524 1523 1523 1522 1522 1522 1521 1520 1520 1520 1519 1519 1518 1517 1517 1516 1515 1515 1515 1515 1515
1499 1500 1500 1502 1503 1505 1506 1507 1509 1510 1512 1513 1514 1515 1515 1516 1517 1517 1518 1518 1519 1520 1520 1520 1520 1521 1521 1522 1522 1523 1523 1523 1523 1524 1524 1525 1525 1525 1525 1525 1525 1525 1525 1524 1524 1523 1523 1523 1522 1522 1521 1521 1520 1520 1519 1519 1518 1518 1517 1517 1516 1515 1515 1514 1514 1513 1513 1513 1512
1496 1497 1498 1499 1501 1502 1504 1506 1508 1509 1510 1511 1513 1513 1514 1515 1515 1515 1516 1517 1518 1518 1518 1519 1519 1519 1520 1520 1520 1521 1521 1521 1521 1522 1523 1524 1523 1523 1523 1523 1523 1523 1523 1522 1522 1522 1521 1521 1520 1520 1520 1519 1519 1518 1518 1517 1517 1516 1515 1515 1514 1514 1513 1512 1512 1511 1511 1510 1510
1494 1495 1495 1497 1499 1501 1503 1504 1506 1507 1509 1510 1511 1512 1512 1513 1513 1514 1515 1515 1516 1516 1516 1517 1517 1518 1518 1518 1519 1519 1519 1519 1520 1521 1522 1522 1521 1521 1521 1521 1521 1521 1521 1521 1520 1520 1520 1519 1519 1518 1518 1517 1516 1516 1515 1515 1515 1514 1514 1513 1512 1512 1511 1510 1510 1509 1509 1508 1508
1492 1492 1493 1495 1497 1499 1501 1503 1505 1506 1508 1509 1510 1510 1510 1511 1512 1512 1513 1514 1514 1515 1515 1515 1516 1516 1517 1517 1517 1517 1517 1518 1519 1520 1520 1519 1519 1519 1520 1520 1520 1520 1520 1519 1519 1518 1518 1517 1517 1516 1516 1515 1515 1514 1514 1513 1513 1512 1511 1511 1510 1510 1509 1508 1508 1507 1506 1506 1507
1490 1491 1492 1494 1496 1499 1501 1503 1504 1505 1507 1507 1508 1508 1509 1509 1510 1511 1511 1512 1513 1513 1514 1514 1515 1515 1515 1515 1515 1515 1516 1517 1517 1517 1517 1517 1517 1518 1518 1518 1518 1518 1518 1517 1517 1516 1516 1515 1515 1514 1514 1513 1513 1512 1511 1511 1510 1510 1509 1509 1508 1508 1507 1507 1506 1505 1505 1505 1505
1490 1490 1491 1494 1496 1499 1501 1502 1504 1504 1505 1505 1506 1506 1507 1508 1509 1509 1510 1511 1512 1512 1513 1513 1514 1514 1514 1514 1514 1514 1515 1516 1515 1515 1515 1515 1515 1516 1516 1516 1516 1516 1516 1516 1515 1515 1514 1514 1513 1512 1512 1511 1510 1510 1509 1509 1508 1508 1507 1507 1506 1506 1505 1505 1504 1504 1504 1504 1504
1490 1490 1492 1494 1497 1499 1500 1501 1502 1503 1503 1504 1504 1505 1505 1506 1507 1508 1509 1510 1510 1511 1511 1512 1512 1512 1512 1512 1513 1513 1514 1514 1513 1513 1513 1514 1514 1514 1515 1515 1514 1514 1514 1514 1513 1513 1512 1512 1511 1510 1510 1509 1508 1508 1507 1507 1506 1505 1505 1505 1504 1504 1503 1503 1502 1502 1502 1503 1502
1490 1491 1493 1494 1496 1498 1499 1500 1500 1501 1502 1502 1503 1503 1504 1505 1506 1507 1508 1509 1509 1510 1510 1510 1510 1510 1510 1511 1511 1511 1511 1511 1511 1511 1512 1512 1513 1513 1513 1512 1512 1512 1512 1512 1511 1511 1510 1510 1509 1509 1508 1507 1506 1505 1505 1504 1504 1503 1503 1502 1502 1502 1501 1501 1500 1500 1501 1501 1500
1490 1491 1492 1493 1495 1496 1497 1498 1499 1500 1500 1501 1502 1502 1503 1504 1505 1506 1507 1507 1508 1508 1508 1508 1509 1509 1509 1509 1509 1510 1510 1510 1510 1510 1511 1511 1511 1511 1510 1510 1510 1510 1510 1510 1510 1509 1508 1508 1507 1506 1506 1505 1504 1503 1503 1502 1501 1501 1501 1500 1500 1500 1499 1499 1499 1499 1499 1499 1499
1488 1489 1490 1491 1493 1494 1495 1496 1497 1498 1499 1500 1500 1501 1502 1503 1504 1505 1505 1506 1506 1506 1506 1507 1507 1507 1506 1507 1508 1508 1508 1508 1508 1509 1509 1509 1509 1509 1509 1508 1508 1508 1508 1508 1507 1507 1506 1505 1505 1504 1504 1503 1502 1501 1500 1500 1499 1499 1499 1498 1498 1498 1497 1497 1497 1497 1497 1497 1497
1485 1487 1489 1490 1491 1493 1494 1495 1496 1497 1498 1498 1500 1500 1501 1502 1503 1503 1504 1504 1504 1504 1505 1505 1504 1504 1505 1506 1507 1507 1506 1506 1507 1507 1507 1507 1507 1507 1506 1506 1506 1506 1506 1506 1505 1505 1504 1503 1503 1502 1501 1500 1499 1499 1498 1498 1497 1497 1496 1496 1496 1495 1495 1495 1495 1495 1495 1495 1495
1483 1485 1487 1489 1490 1491 1492 1493 1494 1495 1496 1497 1498 1499 1500 1500 1500 1501 1502 1502 1502 1503 1502 1502 1502 1503 1504 1505 1505 1505 1505 1505 1506 1506 1505 1505 1505 1505 1504 1504 1504 1504 1504 1504 1503 1502 1501 1501 1500 1500 1499 1498 1497 1496 1496 1495 1495 1495 1495 1494 1494 1494 1493 1493 1494 1494 1494 1494 1494
1482 1485 1486 1488 1489 1490 1491 1492 1493 1494 1495 1496 1497 1497 1498 1498 1499 1499 1500 1500 1500 1500 1500 1500 1501 1503 1503 1503 1503 1503 1504 1504 1504 1504 1504 1503 1503 1503 1502 1502 1501 1501 1501 1501 1501 1500 1499 1498 1497 1497 1496 1495 1494 1494 1493 1493 1493 1493 1492 1492 1492 1492 1491 1492 1492 1492 1492 1492 1491
1482 1484 1485 1486 1487 1488 1489 1490 1492 1493 1494 1494 1495 1495 1495 1496 1497 1497 1498 1498 1498 1498 1498 1500 1501 1502 1502 1501 1501 1502 1502 1503 1502 1502 1501 1501 1500 1500 1500 1500 1499 1499 1499 1499 1498 1497 1496 1495 1495 1494 1493 1493 1492 1491 1491 1491 1491 1490 1490 1490 1490 1490 1490 1490 1490 1490 1490 1489 1489
1481 1483 1484 1485 1486 1487 1488 1490 1490 1491 1492 1492 1493 1493 1494 1494 1495 1496 1496 1496 1496 1497 1498 1500 1500 1500 1500 1500 1500 1500 1501 1500 1500 1500 1499 1499 1498 1498 1498 1498 1497 1497 1497 1496 1495 1495 1494 1493 1492 1492 1491 1490 1490 1489 1489 1489 1489 1489 1488 1488 1488 1488 1488 1488 1488 1488 1487 1487 1487